Location: USNO
(38.9242°N, 77.0663°W)
Time: 02:37:25
(UTC-05:00)

N. Korean satellite - Pass Details

Date: 12 October 2017
Orbit: 461 x 513 km, 97.2° (Epoch: 10 December)

Event Time Altitude Azimuth Distance (km) Brightness Sun altitude
Rises 20:11:55 0° 207° (SSW) 2,558 10.5 -19.9°
Reaches altitude 10° 20:14:47 10° 233° (SW) 1,670 9.9 -20.4°
Maximum altitude 20:16:47 14° 267° (W) 1,420 9.9 -20.8°
Drops below altitude 10° 20:18:46 10° 301° (WNW) 1,661 10.2 -21.2°
Sets 20:21:37 0° 327° (NNW) 2,534 10.8 -21.8°
